Flag for Germany Weather past 2 weeks in Pirmasens, Rhineland-Palatinate, Germany

Now
73 °F

Thundershowers. Broken clouds.


Feels Like: 73 °F
Forecast: 58 / 74 °F
Wind: 5 mph from Southwest

Location: Zweibrucken - Rheinland-Pfalz

Current Time: Jul 29, 2014 at 5:02:24 PM

Latest Report: Jul 29, 2014 at 4:20 PM


Visibility: N/A

Pressure: 29.80 "Hg

Humidity: 83%

Dew point: 68 °F

Location of PirmasensLocation

Historic Weather in Pirmasens — Graph

°F

Pirmasens temperature yesterday

Maximum temperature yesterday: 75 °F (at 2:50 PM)
Minimum temperature yesterday: 59 °F (at 4:50 AM)
Average temperature yesterday: 67 °F

Past Weeks' High & Low Weather Summary

 TemperatureHumidityPressure
High90 °F (Jul 19, 3:20 PM)100% (Jul 21, 7:50 AM)30.21 "Hg (Jul 21, 7:50 AM)
Low57 °F (Jul 15, 4:20 AM)35% (Jul 18, 6:50 PM)29.80 "Hg (Jul 29, 7:50 AM)
Average72 °F68%30.00 "Hg
* Reported Jul 14 3:20 PM — Jul 29 3:50 PM, Pirmasens, Weather by CustomWeather, © 2014

Note: Actual official high and low records may vary slightly from our data, if they occured in-between our weather recording intervals... More about our weather records

Advertising

Pirmasens weather history for previous 24 hours

 ConditionsComfort  
Time TempWeatherWind HumidityBarometerVisibility
3:50 PM
Jul 29
73 °FBroken clouds.3 mph78%29.80 "HgN/A
3:20 PM72 °FScattered clouds.2 mph78%29.80 "HgN/A
2:50 PM70 °FMostly cloudy.2 mph88%29.80 "HgN/A
2:20 PM68 °FMostly cloudy.3 mph88%29.80 "HgN/A
1:50 PM66 °FPartly sunny.2 mph94%29.83 "Hg5 mi
1:20 PM66 °FMore clouds than sun.1 mph100%29.83 "Hg4 mi
12:50 PM64 °FDrizzle. Fog.3 mph94%29.83 "Hg1 mi
12:20 PM63 °FFog.2 mph100%29.83 "Hg1 mi
11:50 AM63 °FFog.2 mph100%29.83 "Hg1 mi
11:20 AM63 °FFog.3 mph100%29.83 "Hg1 mi
10:50 AM63 °FLight rain. Fog.3 mph100%29.83 "Hg1 mi
10:20 AM63 °FFog.3 mph94%29.83 "Hg0 mi
9:50 AM63 °FFog.2 mph94%29.83 "Hg0 mi
9:20 AM63 °FFog.2 mph94%29.83 "Hg0 mi
8:50 AM61 °FFog.5 mph100%29.80 "Hg0 mi
8:20 AM61 °FFog.3 mph100%29.80 "Hg1 mi
7:50 AM61 °FFog.3 mph100%29.80 "Hg1 mi
5:20 AM61 °FLight rain. Fog.6 mph100%29.83 "Hg2 mi
4:50 AM61 °FLight rain. Fog.6 mph100%29.83 "Hg2 mi
1:20 AM61 °FRain. Fog.10 mph100%29.86 "Hg1 mi
12:50 AM61 °FRain. Fog.8 mph100%29.86 "Hg2 mi
12:20 AM63 °FLight rain. Partly cloudy.6 mph94%29.89 "Hg4 mi
11:50 PM
Jul 28
63 °FSprinkles. Fog.5 mph94%29.89 "Hg2 mi
11:20 PM61 °FFog.7 mph100%29.89 "Hg2 mi
10:50 PM61 °FSnow. Cloudy.7 mph100%29.89 "Hg1 mi
10:20 PM61 °FThundershowers. Fog.8 mph100%29.89 "Hg2 mi
9:50 PM61 °FHeavy rain. Fog.2 mph100%29.89 "Hg3 mi
9:20 PM61 °FThunderstorms. Fog.6 mph100%29.89 "Hg3 mi
8:50 PM61 °FThundershowers. Scattered clouds.6 mph100%29.86 "Hg4 mi
8:20 PM63 °FThundershowers. Partly sunny.8 mph94%29.86 "HgN/A
7:50 PM63 °FThundershowers. Broken clouds.10 mph100%29.86 "HgN/A
7:20 PM63 °FLight rain. Broken clouds.10 mph100%29.86 "HgN/A
6:50 PM64 °FLight rain. Scattered clouds.12 mph94%29.86 "Hg5 mi
6:20 PM64 °FScattered showers. Broken clouds.12 mph94%29.86 "HgN/A
5:50 PM66 °FSprinkles. Scattered clouds.15 mph88%29.86 "HgN/A
5:20 PM66 °FScattered showers. Broken clouds.15 mph83%29.86 "HgN/A
Weather by CustomWeather, © 2014

See weather overviewHow to use our weather pages